Weather History for Louisville Bowman, KY

Change the Weather History Date:

Wednesday, April 24, 2013

  Actual Average Record
Temperature  
Mean Temperature 53 °F 60 °F  
Max Temperature 68 °F 70 °F 91 °F (1960)
Min Temperature 38 °F 50 °F 35 °F (2005)
Degree Days  
Heating Degree Days 12 6  
Month to date heating degree days 221 236  
Since 1 July heating degree days 4214 4159  
Cooling Degree Days 0 1  
Month to date cooling degree days 37 24  
Year to date cooling degree days 37 28  
Growing Degree Days 4 (Base 50)    
Moisture  
Dew Point 45 °F    
Average Humidity 74    
Maximum Humidity 93    
Minimum Humidity 55    
Precipitation  
Precipitation 0.83 in 0.17 in 2.34 in (1966)
Month to date precipitation 3.59 3.08  
Year to date precipitation 14.43 13.80  
Sea Level Pressure  
Sea Level Pressure 29.98 in    
Wind  
Wind Speed 9 mph (WNW)    
Max Wind Speed 24 mph    
Max Gust Speed 29 mph    
Visibility 6 miles    
Events Rain , Thunderstorm    
T = Trace of Precipitation, MM = Missing Value Source: NWS Daily Summary

Daily Weather History Graph

Daily Weather History Graph

Search for Another Location

Airport:

Trip Planner

Search our weather history database for the weather conditions in past years. The results will help you decide how hot, cold, wet, or windy it might be!

Date:

Astronomy

Apr. 24, 2013 Rise Set
Actual Time 6:54 AM EDT 8:27 PM EDT
Civil Twilight 6:26 AM EDT 8:55 PM EDT
Nautical Twilight 5:52 AM EDT 9:29 PM EDT
Astronomical Twilight 5:17 AM EDT 10:04 PM EDT
Moon 7:30 PM EDT (4/24) 5:56 AM EDT (4/24)
Length of Visible Light 14h 29m
Length of Day
13h 33m
Waxing Gibbous, 98% of the Moon is Illuminated
Apr 24
Waxing Gibbous
Apr 25
Full
May 2
Last Quarter
May 9
New
May 18
First Quarter

Hourly Weather History & Observations

Time (EDT) Temp. Windchill Dew Point Humidity Pressure Visibility Wind Dir Wind Speed Gust Speed Precip Events Conditions
12:53 AM 66.9 °F - 50.0 °F 54% 29.88 in 10.0 mi South 9.2 mph 23.0 mph N/A   Partly Cloudy
1:53 AM 68.0 °F - 51.1 °F 55% 29.86 in 10.0 mi South 12.7 mph 20.7 mph N/A   Overcast
2:53 AM 66.9 °F - 51.1 °F 57% 29.83 in 10.0 mi South 11.5 mph 24.2 mph N/A   Overcast
3:53 AM 66.9 °F - 52.0 °F 59% 29.82 in 10.0 mi South 8.1 mph 18.4 mph N/A   Overcast
4:53 AM 66.0 °F - 53.1 °F 63% 29.83 in 10.0 mi SSW 9.2 mph - N/A   Overcast
5:53 AM 66.2 °F - 53.6 °F 64% 29.83 in 10.0 mi SSW 11.5 mph 18.4 mph N/A   Overcast
6:49 AM 62.6 °F - 55.4 °F 77% 29.86 in 3.0 mi West 11.5 mph - 0.07 in Rain Heavy Rain
6:53 AM 61.0 °F - 57.0 °F 87% 29.86 in 2.5 mi West 13.8 mph - 0.10 in Rain , Thunderstorm Heavy Rain
7:12 AM 59.0 °F - 55.4 °F 88% 29.85 in 7.0 mi West 8.1 mph - 0.03 in Rain Light Rain
7:37 AM 57.2 °F - 55.4 °F 94% 29.85 in 5.0 mi NW 6.9 mph - 0.03 in Rain Light Rain
7:48 AM 57.2 °F - 55.4 °F 94% 29.84 in 2.5 mi NW 6.9 mph - 0.05 in Rain Rain
7:53 AM 57.0 °F - 55.0 °F 93% 29.83 in 1.8 mi NW 9.2 mph - 0.07 in Rain Heavy Rain
8:13 AM 55.4 °F - 55.4 °F 100% 29.84 in 2.0 mi NW 9.2 mph - 0.08 in Rain Rain
8:26 AM 53.6 °F - 53.6 °F 100% 29.86 in 3.0 mi WNW 18.4 mph 21.9 mph 0.12 in Rain Heavy Rain
8:47 AM 51.8 °F - 48.2 °F 88% 29.87 in 7.0 mi WNW 15.0 mph - 0.14 in Rain Rain
8:53 AM 51.1 °F - 48.9 °F 92% 29.86 in 4.0 mi NNW 9.2 mph - 0.16 in Rain Rain
8:59 AM 50.0 °F - 48.2 °F 94% 29.85 in 2.5 mi North 4.6 mph 18.4 mph 0.03 in Rain Heavy Rain
9:06 AM 50.0 °F - 48.2 °F 94% 29.85 in 2.5 mi NNW 5.8 mph - 0.07 in Rain Heavy Rain
9:20 AM 50.0 °F - 48.2 °F 94% 29.90 in 1.5 mi WNW 16.1 mph 20.7 mph 0.18 in Rain Heavy Rain
9:31 AM 48.2 °F - 46.4 °F 93% 29.91 in 1.5 mi WNW 23.0 mph 28.8 mph 0.26 in Rain Heavy Rain
9:33 AM 48.2 °F - 46.4 °F 93% 29.91 in 2.0 mi WNW 20.7 mph 28.8 mph 0.26 in Rain Heavy Rain
9:42 AM 48.2 °F - 46.4 °F 93% 29.90 in 1.5 mi WNW 6.9 mph - 0.33 in Rain Heavy Rain
9:53 AM 48.0 °F - 46.0 °F 93% 29.87 in 2.0 mi Calm Calm - 0.37 in Rain Rain
9:57 AM 48.2 °F - 46.4 °F 93% 29.88 in 3.0 mi NW 5.8 mph - 0.01 in Rain Rain
10:01 AM 48.2 °F - 46.4 °F 93% 29.89 in 2.5 mi WNW 6.9 mph - 0.03 in Rain Heavy Rain
10:08 AM 48.2 °F - 46.4 °F 93% 29.88 in 3.0 mi NW 8.1 mph - 0.04 in Rain Rain
10:29 AM 48.2 °F - 46.4 °F 93% 29.87 in 4.0 mi NW 6.9 mph - 0.08 in Rain Rain
10:37 AM 48.2 °F - 46.4 °F 93% 29.85 in 4.0 mi Variable 3.5 mph - 0.09 in Rain Rain
10:53 AM 46.9 °F - 45.0 °F 93% 29.88 in 9.0 mi NW 9.2 mph - 0.11 in Rain Light Rain
11:20 AM 46.4 °F 39.5 °F 42.8 °F 87% 29.98 in 10.0 mi WNW 17.3 mph 27.6 mph 0.00 in Rain Light Rain
11:29 AM 46.4 °F 39.8 °F 42.8 °F 87% 29.97 in 10.0 mi WNW 16.1 mph 24.2 mph 0.00 in Rain Light Rain
11:53 AM 45.0 °F 37.9 °F 42.1 °F 90% 30.01 in 2.5 mi WNW 16.1 mph 24.2 mph 0.01 in Rain Light Rain
12:09 PM 44.6 °F 38.1 °F 42.8 °F 93% 30.03 in 3.0 mi WNW 13.8 mph - 0.00 in Rain Light Rain
12:22 PM 44.6 °F 38.1 °F 42.8 °F 93% 30.04 in 2.0 mi WNW 13.8 mph 23.0 mph 0.00 in Rain Light Rain
12:46 PM 44.6 °F 37.4 °F 42.8 °F 93% 30.05 in 3.0 mi WNW 16.1 mph 23.0 mph 0.01 in Rain Light Rain
12:53 PM 44.1 °F 37.4 °F 41.0 °F 89% 30.05 in 3.0 mi WNW 13.8 mph 21.9 mph 0.01 in Rain Light Rain
1:00 PM 44.6 °F 39.7 °F 42.8 °F 93% 30.04 in 4.0 mi WNW 9.2 mph - 0.00 in Rain Light Rain
1:53 PM 45.0 °F 37.9 °F 39.9 °F 82% 30.07 in 10.0 mi WNW 16.1 mph 24.2 mph 0.00 in   Overcast
2:00 PM 44.6 °F 37.4 °F 39.2 °F 81% 30.07 in 10.0 mi West 16.1 mph - N/A   Overcast
2:53 PM 46.9 °F - 37.9 °F 71% 30.09 in 10.0 mi WNW 13.8 mph 23.0 mph N/A   Overcast
3:53 PM 46.9 °F - 37.9 °F 71% 30.12 in 10.0 mi WNW 13.8 mph - N/A   Overcast
4:53 PM 48.0 °F - 37.9 °F 68% 30.14 in 10.0 mi WNW 9.2 mph - N/A   Overcast
5:01 PM 48.2 °F - 37.4 °F 66% 30.14 in 10.0 mi WNW 11.5 mph - N/A   Overcast
5:53 PM 48.0 °F - 36.0 °F 63% 30.17 in 10.0 mi West 11.5 mph - N/A   Overcast
6:05 PM 46.4 °F 40.1 °F 35.6 °F 66% 30.17 in 10.0 mi NW 15.0 mph 23.0 mph N/A   Overcast
6:24 PM 48.2 °F - 35.6 °F 62% 30.18 in 10.0 mi WNW 16.1 mph - N/A   Overcast
6:53 PM 48.0 °F - 34.0 °F 58% 30.20 in 10.0 mi West 10.4 mph - N/A   Overcast
7:53 PM 46.9 °F - 33.1 °F 59% 30.21 in 10.0 mi WNW 12.7 mph - N/A   Mostly Cloudy
8:53 PM 43.0 °F 40.3 °F 34.0 °F 71% 30.24 in 10.0 mi West 4.6 mph - N/A   Clear
9:53 PM 44.1 °F - 34.0 °F 68% 30.25 in 10.0 mi Calm Calm - N/A   Clear
10:53 PM 39.9 °F - 35.1 °F 83% 30.27 in 10.0 mi Calm Calm - N/A   Clear
11:53 PM 39.0 °F - 36.0 °F 89% 30.29 in 10.0 mi Calm Calm - N/A   Clear